Terminal Aerodrome Forecast
Issued by NWS

Home | Current Version | Previous Version | Text Only | Print | Product List | Glossary On
Versions: 1 2 3 4 5 6 7 8 9 10 11 12 13 14 15 16 17 18 19
000
FTUS46 KSEW 280842 AAA
TAFCLM
TAF AMD
KCLM 280842Z 2809/2906 33004KT 3SM BR BKN003
      TEMPO 2809/2811 1SM BR OVC001
     FM281600 33005KT P6SM SKC=

USA.gov is the U.S. government's official web portal to all federal, state and local government web resources and services.